Content
SEND FEEDBACK

Daily
Averages
Monthly
Summary
United States of America

BLAIR, SOUTH CAROLINA


Home > North America > United States > South Carolina
Elevation: 29 feet     Latitude: 34 25N     Longitude: 081 24W

WEATHER
 
SELECT A DAY
Number of Records: 129,020;   Date Range: 12/16/08 - 7/24/14
 
SHARE

PRINT THIS DATA

[ ← Previous Day ]
WEATHER ALMANAC - JANUARY 23, 2013
[ Next Day → ]
[ °C ]   °F
Weather ElementAverageHighLow
Temperature38.9 °F51.8 °F (3:15 pm)26.6 °F (4:55 am)
Dewpoint25.2 °F32 °F (8:15 pm)17.6 °F (9:15 am)
Humidity60.6 %86 % (3:55 am)35 % (2:15 pm)
Barometer30.28 in30.39 in (10:35 am)30.14 in (11:55 pm)
Wind Speed4.7 mph12.7 mph (4:55 pm)
Wind Gust19.6 mph (3:35 pm)
Weather ElementAverage
Visibility10 mi
Wind DirectionSSE (145.5 °)

Weather ElementTotal
Precipitation---
Heating Degree Days25.8 (Base 65)
Averaged from 62 records on January 23, 2013
WEATHER CONDITIONS BREAKOUT
WIND DIRECTION BREAKOUT
WEATHER BY HOUR - JANUARY 23, 2013
[ °C ]   °F
Local TimeTemperatureDewpointHumidityBarometerVisibilityWind DirectionWind SpeedGust SpeedPrecipitationEventsConditions
12:55 AM32.0 °F21.2 °F64 %30.30 in10.0 miWNW (300°)4.6 mphClear
1:15 AM32.0 °F23.0 °F69 %30.31 in10.0 miCalmClear
1:35 AM32.0 °F23.0 °F69 %30.31 in10.0 miWNW (300°)3.5 mphClear
1:55 AM30.2 °F21.2 °F69 %30.31 in10.0 miCalmClear
2:15 AM30.2 °F23.0 °F75 %30.32 in10.0 miCalmClear
2:35 AM30.2 °F23.0 °F75 %30.32 in10.0 miCalmClear
2:55 AM30.2 °F24.8 °F80 %30.32 in10.0 miCalmClear
3:15 AM28.4 °F23.0 °F80 %30.32 in10.0 miCalmClear
3:55 AM28.4 °F24.8 °F86 %30.32 in10.0 miCalmClear
4:15 AM28.4 °F23.0 °F80 %30.32 in10.0 miCalmClear
4:55 AM26.6 °F23.0 °F86 %30.32 in10.0 miCalmClear
5:15 AM28.4 °F21.2 °F74 %30.32 in10.0 miCalmClear
5:35 AM28.4 °F21.2 °F74 %30.33 in10.0 miCalmClear
5:55 AM28.4 °F23.0 °F80 %30.34 in10.0 miCalmClear
6:15 AM26.6 °F21.2 °F80 %30.34 in10.0 miCalmClear
6:35 AM26.6 °F21.2 °F80 %30.34 in10.0 miCalmClear
6:55 AM26.6 °F21.2 °F80 %30.35 in10.0 miCalmClear
7:15 AM26.6 °F23.0 °F86 %30.35 in10.0 miCalmClear
7:35 AM26.6 °F21.2 °F80 %30.35 in10.0 miCalmClear
7:55 AM26.6 °F23.0 °F86 %30.36 in10.0 miCalmClear
8:15 AM28.4 °F23.0 °F80 %30.36 in10.0 miCalmClear
8:55 AM32.0 °F21.2 °F64 %30.37 in10.0 miCalmClear
9:15 AM33.8 °F17.6 °F52 %30.38 in10.0 miESE (120°)3.5 mphClear
9:35 AM35.6 °F19.4 °F52 %30.37 in10.0 miESE (110°)4.6 mphClear
9:55 AM37.4 °F17.6 °F45 %30.38 in10.0 miCalmClear
10:35 AM39.2 °F17.6 °F42 %30.39 in10.0 miSouth (180°)3.5 mphClear
10:55 AM41.0 °F17.6 °F39 %30.39 in10.0 miSSE (150°)3.5 mphClear
11:15 AM41.0 °F17.6 °F39 %30.38 in10.0 miCalmClear
11:35 AM42.8 °F17.6 °F36 %30.37 in10.0 miWest (270°)3.5 mphClear
11:55 AM42.8 °F19.4 °F39 %30.35 in10.0 miWSW (240°)4.6 mphClear
12:15 PM44.6 °F21.2 °F39 %30.33 in10.0 miSW (220°)6.9 mphClear
12:55 PM44.6 °F21.2 °F39 %30.30 in10.0 miWSW (250°)8.1 mphClear
1:15 PM46.4 °F23.0 °F40 %30.29 in10.0 miWest (280°)5.8 mph10.4 mphClear
1:35 PM46.4 °F23.0 °F40 %30.28 in10.0 miWSW (240°)8.1 mphClear
1:55 PM48.2 °F23.0 °F37 %30.26 in10.0 miWSW (240°)10.4 mphClear
2:15 PM50.0 °F23.0 °F35 %30.26 in10.0 miWest (270°)10.4 mph16.1 mphClear
2:55 PM50.0 °F26.6 °F40 %30.24 in10.0 miWSW (250°)6.9 mphClear
3:15 PM51.8 °F26.6 °F38 %30.24 in10.0 miWest (260°)6.9 mphClear
3:35 PM51.8 °F26.6 °F38 %30.23 in10.0 miWSW (250°)8.1 mph19.6 mphClear
3:55 PM51.8 °F28.4 °F41 %30.23 in10.0 miWSW (240°)11.5 mphClear
4:15 PM51.8 °F28.4 °F41 %30.22 in10.0 miSW (230°)10.4 mphClear
4:55 PM51.8 °F28.4 °F41 %30.21 in10.0 miSW (220°)12.7 mph16.1 mphClear
5:15 PM51.8 °F28.4 °F41 %30.21 in10.0 miSW (230°)10.4 mphClear
5:35 PM50.0 °F30.2 °F47 %30.21 in10.0 miWSW (240°)10.4 mph16.1 mphClear
5:55 PM46.4 °F30.2 °F53 %30.21 in10.0 miSW (230°)6.9 mphClear
6:15 PM46.4 °F30.2 °F53 %30.21 in10.0 miSSW (210°)6.9 mphClear
6:55 PM46.4 °F30.2 °F53 %30.20 in10.0 miSSW (210°)9.2 mphClear
7:15 PM44.6 °F30.2 °F57 %30.20 in10.0 miSSW (210°)8.1 mphClear
7:35 PM44.6 °F30.2 °F57 %30.20 in10.0 miSW (220°)10.4 mphClear
7:55 PM44.6 °F30.2 °F57 %30.19 in10.0 miSW (220°)5.8 mphClear
8:15 PM42.8 °F32.0 °F66 %30.19 in10.0 miSW (220°)8.1 mphClear
8:35 PM42.8 °F32.0 °F66 %30.18 in10.0 miSW (220°)6.9 mphClear
8:55 PM42.8 °F32.0 °F66 %30.18 in10.0 miSSW (210°)5.8 mphClear
9:15 PM41.0 °F32.0 °F70 %30.19 in10.0 miSW (220°)4.6 mphClear
9:35 PM41.0 °F32.0 °F70 %30.19 in10.0 miSW (220°)6.9 mphClear
9:55 PM41.0 °F32.0 °F70 %30.18 in10.0 miSW (230°)5.8 mphClear
10:15 PM41.0 °F32.0 °F70 %30.17 in10.0 miSSW (210°)6.9 mphClear
10:35 PM41.0 °F32.0 °F70 %30.17 in10.0 miSW (220°)4.6 mphClear
10:55 PM41.0 °F32.0 °F70 %30.17 in10.0 miSW (220°)6.9 mphClear
11:15 PM41.0 °F32.0 °F70 %30.15 in10.0 miSW (220°)9.2 mphClear
11:35 PM41.0 °F32.0 °F70 %30.15 in10.0 miSW (220°)9.2 mphClear
11:55 PM41.0 °F32.0 °F70 %30.14 in10.0 miSW (220°)9.2 mphClear
Hourly data recorded from KEOE, located miles away from Blair, South Carolina







STORIES FROM OUR PARTNERS